Theta_e
348 348 348 349 349 350 350 350 350 349 350 351 351 351 350 350 350 349 349 350 345 338 338 341 342 343 343 343 346 347 347 348 348 348 348 349 350 350 349 349 349 347 344 341 340 341 341 341 341 340 342 343 342 343 344 344 343 344 347 347 346 346 344
348 348 348 348 349 350 349 350 350 350 350 351 351 350 350 350 350 350 350 350 346 339 337 338 340 342 342 342 345 347 347 348 349 348 349 350 351 350 350 349 348 348 346 342 341 342 342 342 342 341 343 344 342 344 345 345 345 346 348 347 347 348 347
348 349 347 347 349 349 349 350 350 350 350 350 352 351 350 350 350 350 350 350 347 340 337 338 337 340 341 340 342 344 345 347 347 348 349 349 350 350 349 348 348 347 347 344 343 344 344 344 343 343 346 345 344 346 346 346 347 347 346 346 346 348 348
348 350 348 347 349 349 349 350 350 351 350 350 351 351 351 350 350 350 350 350 347 339 337 338 337 338 339 339 340 341 341 344 345 346 347 348 348 348 347 347 346 345 346 345 343 344 347 346 344 345 347 345 344 346 347 347 348 347 345 344 344 344 345
349 350 348 347 349 349 349 350 350 351 350 350 350 351 351 350 350 350 350 351 348 340 337 338 338 337 337 338 339 339 339 341 342 343 345 346 346 346 346 344 343 345 345 343 343 344 346 347 345 344 346 345 344 345 345 345 346 345 343 342 342 342 342
350 350 348 347 348 349 350 350 350 350 350 350 350 351 352 351 350 351 350 351 350 344 338 338 338 338 337 337 338 338 338 338 339 340 342 343 343 344 344 343 344 348 348 345 344 345 346 346 346 344 346 348 347 345 345 344 343 343 342 342 342 343 342
351 351 350 347 347 349 349 350 349 349 349 349 349 350 351 351 351 351 351 351 351 348 341 338 339 339 337 336 337 337 337 337 337 338 339 341 341 343 343 342 344 348 350 348 347 347 347 347 347 347 348 349 348 348 347 346 343 342 343 343 342 342 341
350 350 351 350 347 347 348 350 350 349 349 349 350 350 350 351 351 351 352 351 352 351 345 339 339 339 338 337 336 336 336 336 335 335 337 339 340 342 342 342 343 347 349 349 349 349 349 348 348 348 349 349 348 347 347 345 344 343 344 344 343 344 343
351 350 350 350 348 347 347 350 350 349 350 350 350 351 350 350 351 351 352 352 352 352 349 343 339 339 339 338 337 336 336 336 336 335 336 339 340 341 343 344 345 346 348 349 349 350 350 349 348 347 347 348 347 346 344 342 343 346 347 346 346 346 346
352 352 351 350 349 348 347 349 350 350 350 349 349 350 350 350 351 351 352 352 352 352 351 348 342 339 340 339 338 337 337 338 338 336 337 338 339 341 343 345 347 347 348 348 348 349 349 348 347 346 345 345 346 347 345 342 344 347 348 348 349 348 348
353 354 353 350 348 347 347 348 350 349 350 350 349 349 349 349 351 352 352 352 352 351 352 351 347 342 340 340 339 339 339 340 341 339 337 338 340 342 344 345 347 348 348 348 348 347 347 346 346 346 345 344 345 347 348 347 346 348 348 348 349 350 350
352 355 352 348 348 348 347 349 349 349 350 350 349 349 349 349 350 351 352 352 352 352 353 354 351 347 344 341 341 340 340 342 345 344 340 338 339 341 343 344 345 347 347 347 347 347 347 346 345 345 346 345 345 345 347 349 348 348 348 348 349 350 351
349 351 350 348 348 347 347 347 348 349 349 349 350 350 350 350 350 351 352 352 353 353 354 354 352 348 346 346 345 344 342 344 349 349 345 342 341 340 342 344 345 346 347 346 346 345 346 346 345 345 345 345 345 345 347 349 349 349 349 349 350 351 350
346 347 348 348 347 347 348 347 348 350 349 348 350 350 350 350 350 351 352 352 353 354 354 354 351 345 345 349 351 349 346 346 349 351 348 347 346 343 343 346 347 347 347 347 346 344 344 345 345 345 345 345 346 345 346 347 347 347 348 350 351 350 349
347 346 347 348 347 348 349 349 350 351 351 349 349 349 350 351 351 352 352 353 354 354 355 355 350 343 343 349 353 352 349 347 350 352 350 350 350 347 345 346 348 347 347 347 347 345 344 344 344 346 345 345 346 346 346 346 346 346 346 347 348 348 349
346 346 346 347 348 348 350 351 349 349 351 351 351 350 350 351 352 353 353 353 354 354 355 354 350 346 344 347 351 352 352 349 350 352 351 351 351 349 347 347 348 348 347 346 346 346 346 344 344 346 346 345 346 346 346 346 345 344 342 342 344 348 350
345 345 346 347 348 348 350 351 351 350 350 351 350 351 352 352 352 352 352 353 354 354 354 353 351 347 345 348 351 352 352 351 350 351 352 351 350 350 349 347 348 348 347 346 345 345 346 345 344 345 345 345 346 346 345 346 346 345 343 342 346 350 352
345 345 345 345 346 348 350 350 351 351 350 350 350 351 351 352 352 352 352 352 353 353 353 352 350 346 345 349 352 352 352 352 351 351 352 351 351 350 349 348 347 347 347 346 345 345 345 345 345 344 345 345 346 346 346 347 348 349 348 348 349 351 351
345 345 346 345 345 348 350 350 350 351 351 350 349 350 350 351 351 352 352 352 351 351 351 351 349 346 347 351 353 352 353 353 352 351 351 352 351 350 350 349 347 347 347 346 345 345 345 346 345 345 346 346 347 347 347 348 348 349 349 350 351 351 351
344 345 347 347 346 348 350 350 350 350 352 351 349 349 349 350 351 351 352 352 351 350 350 350 350 349 350 353 353 353 353 353 353 352 351 352 352 351 350 349 348 347 346 346 346 346 346 346 346 346 347 347 347 347 347 348 349 348 348 350 351 351 351
345 345 346 347 347 348 349 350 351 351 353 353 352 351 350 351 351 350 351 353 353 353 352 351 350 351 353 354 354 354 354 354 354 353 352 352 352 352 351 350 350 349 348 347 347 346 346 346 346 347 347 347 347 347 347 348 349 348 348 349 349 350 351
344 343 344 345 346 347 348 349 350 351 352 353 354 353 353 353 352 351 350 350 351 353 354 354 354 353 354 355 355 354 354 354 354 354 353 353 353 353 352 351 351 351 351 350 349 349 348 347 347 348 348 349 348 348 348 348 348 348 349 349 350 351 352
343 342 344 344 344 346 348 348 349 350 350 351 352 352 353 353 353 353 352 350 350 351 351 353 355 354 355 355 355 355 354 354 354 354 355 354 354 354 353 353 352 352 352 352 352 351 351 350 349 349 349 349 349 348 348 348 348 349 350 350 351 352 352
342 342 343 343 344 345 347 348 349 349 349 349 350 350 351 352 352 353 352 352 353 353 352 352 352 352 353 355 355 355 354 354 354 355 355 354 353 352 351 352 353 353 353 353 353 352 352 351 350 349 348 348 349 348 349 349 350 351 351 351 352 351 351
342 342 342 342 343 343 345 347 348 349 349 349 349 348 349 349 349 350 350 351 352 353 353 353 351 351 352 352 354 354 354 353 354 354 354 353 350 349 349 351 353 353 352 352 351 351 351 349 348 346 345 345 346 347 347 349 350 352 352 352 351 350 350
342 342 341 342 342 342 344 346 347 349 350 349 348 348 347 347 347 347 347 348 349 349 349 350 351 351 351 351 352 353 353 353 354 354 354 353 350 350 351 351 352 352 351 350 349 348 348 347 346 345 344 344 345 346 346 347 350 352 352 351 349 348 347
341 341 341 341 342 342 343 344 346 349 350 349 349 347 346 346 346 346 345 346 347 346 345 345 347 348 348 348 350 352 353 353 354 354 353 351 350 351 352 352 352 351 350 349 349 349 348 348 348 347 346 346 346 346 347 349 351 352 352 349 347 345 345
341 341 342 342 342 342 343 344 346 347 349 350 349 347 346 346 345 345 345 345 346 346 345 345 346 347 347 347 349 351 353 354 353 353 352 351 350 351 352 351 351 351 350 350 349 349 350 350 349 348 348 348 347 347 349 351 351 350 349 346 345 345 346
342 343 343 343 343 343 344 345 346 347 348 349 349 348 348 347 346 346 346 345 346 347 345 345 346 346 346 347 347 347 349 350 349 347 346 347 348 348 349 349 349 349 349 348 348 348 348 348 349 349 349 349 349 349 350 349 348 347 345 345 347 348 348
342 341 342 343 343 344 344 345 346 346 347 349 349 349 348 347 346 346 345 345 346 347 346 345 347 347 346 347 346 345 345 346 345 343 343 345 345 345 345 346 346 346 346 346 346 346 346 347 348 348 348 350 351 349 347 346 345 345 346 347 348 348 348
339 339 340 341 342 343 343 344 345 346 346 347 348 348 348 347 346 346 346 345 346 346 346 345 346 346 346 345 345 345 344 345 345 345 345 345 345 345 344 345 345 345 345 345 344 343 343 345 347 346 346 349 350 348 347 347 347 347 347 347 347 347 347
338 338 339 339 340 341 341 342 343 344 345 346 346 346 346 346 346 346 346 346 346 345 345 344 344 344 344 344 344 344 344 345 345 346 346 345 345 345 345 345 345 344 344 344 343 342 342 343 344 344 345 348 349 347 347 347 347 347 345 343 343 343 343
337 338 337 337 338 338 338 339 340 341 342 342 343 344 344 344 344 345 345 346 346 345 346 345 345 344 344 344 344 344 345 345 345 345 345 344 345 344 344 344 344 343 343 343 342 343 343 342 342 343 344 345 346 345 344 345 345 344 342 341 340 341 340
337 337 337 337 336 336 336 337 337 337 338 339 340 341 341 342 342 343 343 345 345 345 345 344 343 343 342 342 343 343 344 344 343 343 343 343 343 343 343 343 343 343 343 343 343 343 343 342 343 344 343 344 344 343 343 343 343 342 341 341 340 340 339
336 336 337 337 336 335 335 334 333 332 333 335 337 338 339 340 340 341 342 343 343 343 344 343 342 342 342 342 342 343 342 342 341 341 341 341 342 342 343 343 343 343 342 341 340 340 341 342 342 342 342 342 342 342 341 340 340 339 339 338 338 337 336
336 336 336 336 335 334 332 331 329 328 329 331 333 335 335 336 337 337 338 339 340 341 342 342 342 341 341 341 342 341 341 341 340 340 341 341 341 342 342 342 341 340 338 336 335 336 336 338 338 339 339 339 339 339 338 337 336 336 335 334 334 331 328
335 335 335 334 334 332 331 331 331 329 329 330 330 331 331 332 332 333 333 334 335 336 336 337 337 336 336 336 336 336 337 337 336 336 336 335 335 336 336 336 334 333 331 329 328 329 330 331 332 333 333 332 332 333 332 331 331 329 328 326 325 323 321
333 333 333 333 333 331 330 331 331 331 331 331 331 330 329 329 329 329 330 331 331 331 331 331 331 331 331 331 330 330 329 329 329 329 328 328 328 327 326 326 325 323 322 321 321 321 322 322 322 322 322 321 320 321 321 320 320 319 318 318 318 318 318
Wind_Speed
25 25 32 37 38 38 38 37 36 37 37 34 32 33 32 30 28 28 28 26 25 27 28 28 29 29 29 31 31 28 26 25 24 23 24 23 22 21 20 19 17 15 16 17 17 17 16 16 17 16 16 16 16 16 16 16 16 15 13 12 12 11 10
25 27 32 37 38 38 39 38 37 37 38 36 33 34 35 32 29 29 28 26 26 27 28 27 29 30 29 30 32 30 27 27 25 24 24 24 22 21 21 19 17 16 16 16 16 17 17 17 17 17 17 17 17 16 16 15 15 14 13 13 12 11 10
26 27 32 37 39 39 39 39 38 37 38 37 34 33 36 35 31 30 28 26 26 27 28 27 28 30 29 29 31 31 28 27 27 25 24 24 23 22 22 21 19 17 17 16 16 16 17 17 17 17 16 16 16 16 15 14 13 13 13 13 11 11 11
25 26 31 36 39 40 40 40 39 38 37 37 36 34 35 36 32 30 28 25 25 28 29 27 28 29 29 29 30 31 30 28 28 26 24 23 23 22 22 21 20 19 18 18 17 16 16 18 18 17 16 15 16 16 15 13 13 13 13 13 12 12 12
21 21 27 33 36 37 40 40 39 38 38 37 37 36 34 34 33 31 29 25 24 27 29 27 27 28 29 28 28 30 30 29 27 26 24 23 23 22 22 21 20 20 19 19 19 17 16 18 19 18 16 16 16 16 15 14 14 14 14 13 13 12 12
20 19 22 29 34 34 37 40 40 39 39 38 37 38 35 33 33 32 29 26 24 25 28 28 27 28 28 28 28 29 29 29 27 26 25 23 22 22 22 21 21 20 19 19 19 17 17 17 17 17 17 16 17 17 16 15 15 15 14 14 13 12 12
22 19 21 27 33 34 33 38 41 40 40 38 37 39 39 35 32 31 30 27 25 25 28 28 28 28 28 28 28 28 28 28 27 25 25 23 21 22 21 20 20 21 19 19 18 17 16 16 16 16 16 16 16 16 15 16 16 15 15 15 13 13 12
17 17 20 25 31 34 32 35 40 41 40 40 38 39 40 38 34 32 31 29 26 25 27 28 28 28 28 28 28 28 28 28 27 26 25 24 22 22 21 19 19 19 20 20 18 16 16 15 14 14 14 14 14 14 14 15 15 14 13 13 13 13 12
12 14 18 22 27 32 33 34 38 41 41 40 40 40 40 39 37 34 32 31 29 26 26 27 28 27 27 27 28 28 27 27 27 26 24 23 23 22 21 20 18 17 19 20 18 16 16 16 14 13 13 13 12 11 12 14 13 12 11 10 11 12 11
7 9 15 22 25 29 33 34 35 38 41 40 40 40 40 39 38 36 33 32 30 28 25 25 27 27 27 27 27 27 27 27 26 26 25 24 23 23 21 20 19 18 18 18 17 17 17 16 14 13 13 14 13 11 10 12 13 12 10 10 11 12 11
5 5 9 21 24 24 27 33 36 37 39 40 40 40 41 40 38 36 35 34 32 29 26 25 26 27 27 27 27 27 27 27 26 26 26 25 24 24 21 21 21 20 20 19 18 17 17 16 15 14 14 14 14 14 13 12 13 13 12 12 14 14 12
5 4 6 20 27 24 20 24 33 39 39 39 39 39 39 39 38 37 36 34 33 30 27 26 26 27 27 27 27 28 28 27 25 25 26 26 25 24 23 22 22 21 21 21 20 19 19 18 16 16 15 14 14 15 16 14 14 14 14 14 15 16 15
6 3 3 14 24 29 25 20 24 35 40 40 39 40 40 38 38 38 38 36 33 30 28 27 26 26 27 26 26 27 28 28 26 23 23 24 24 25 24 22 21 21 21 20 19 20 21 21 20 19 18 16 15 15 17 16 16 16 15 14 15 17 17
10 6 2 9 16 22 24 20 18 27 39 43 41 40 40 40 39 38 37 36 34 32 29 26 25 25 25 26 26 25 27 29 27 24 21 20 20 22 25 24 21 21 22 21 19 19 20 21 21 20 20 19 17 16 18 19 20 19 17 15 16 18 18
14 10 4 6 12 14 14 14 14 19 30 40 43 43 41 40 40 39 38 37 34 33 30 27 25 25 25 27 28 27 26 27 28 25 21 20 18 18 22 25 23 21 21 22 22 21 20 20 20 20 22 22 20 18 19 20 22 23 22 22 22 20 19
13 10 6 2 7 10 10 9 10 13 19 25 33 41 44 44 42 39 38 38 36 34 32 29 28 27 26 27 29 29 26 25 27 27 24 22 21 18 20 23 25 24 22 22 22 23 23 22 21 21 21 22 21 20 20 20 22 24 24 25 23 19 17
13 12 8 3 2 5 8 7 7 11 16 17 18 25 34 42 44 41 38 37 37 36 33 31 30 29 28 27 28 30 29 26 27 29 27 25 24 23 22 23 24 25 25 23 23 24 25 25 24 23 21 21 21 21 21 20 19 20 20 21 21 18 17
13 13 11 5 2 4 7 9 8 8 13 16 17 18 20 27 35 39 41 40 38 36 34 32 31 30 29 29 29 31 32 29 29 30 30 28 27 27 26 25 24 24 24 25 24 23 24 25 26 24 23 22 20 20 21 21 20 19 18 20 20 19 19
12 12 12 8 3 4 5 8 11 11 11 14 19 21 20 20 23 26 33 38 37 35 34 32 32 31 30 29 31 33 33 31 30 31 32 31 28 28 28 27 26 25 24 23 22 20 21 24 25 24 24 22 20 19 20 22 22 21 21 22 22 21 20
14 14 15 11 5 5 6 7 10 13 14 15 18 20 21 22 23 20 21 28 32 33 33 33 32 32 31 31 33 34 34 33 31 31 32 33 30 29 29 28 27 26 25 24 22 19 19 21 23 24 24 23 21 21 22 24 24 24 23 24 24 24 23
14 14 14 12 8 6 7 7 9 13 15 15 16 19 20 20 22 22 22 23 26 29 31 33 32 32 32 33 35 35 35 35 33 32 32 33 32 30 29 28 26 25 25 25 24 23 22 22 22 23 23 23 23 23 24 25 25 25 24 24 25 26 24
12 11 10 10 8 6 6 6 7 10 12 11 12 16 18 17 19 22 23 24 25 26 28 31 33 34 35 36 36 36 36 36 35 33 32 33 34 32 30 29 27 25 24 25 25 26 26 26 26 25 24 24 24 25 25 25 24 23 22 23 24 25 24
10 9 8 9 8 5 4 4 5 7 9 10 10 11 12 13 17 19 21 24 28 29 30 31 32 32 34 36 36 36 37 37 36 34 33 33 31 28 26 25 25 25 25 24 25 25 26 26 27 26 25 25 25 25 24 23 22 21 21 22 23 24 24
8 7 6 6 6 4 4 4 4 6 7 8 8 8 7 9 11 13 15 20 24 25 26 27 27 27 27 29 32 35 34 32 31 31 30 27 23 21 21 22 23 24 24 23 23 23 24 24 24 23 23 23 24 24 22 21 21 21 21 22 22 23 22
7 6 5 4 5 4 4 5 4 5 6 6 6 6 6 6 6 8 10 13 17 19 20 22 25 27 25 24 29 33 31 26 26 27 26 22 19 18 20 21 22 21 21 21 22 22 22 22 22 22 23 23 24 24 23 21 21 21 21 21 21 21 20
7 5 3 3 5 5 3 4 4 5 6 6 5 4 4 3 4 4 6 6 7 10 13 16 21 26 25 23 26 28 24 22 24 25 21 18 17 18 19 20 20 20 20 21 22 22 22 22 22 22 23 24 25 25 24 22 21 21 21 21 20 19 19
5 4 4 5 5 3 1 3 5 6 6 6 4 4 3 2 2 2 2 2 1 1 3 5 11 18 19 20 22 21 21 21 21 18 15 14 16 17 17 17 16 16 17 18 19 19 20 20 20 21 23 24 25 24 23 22 21 21 20 20 19 18 18
4 5 5 7 8 6 3 3 4 4 5 6 5 4 4 2 1 1 0 2 4 4 5 4 4 7 9 13 16 18 20 18 15 13 13 14 16 16 15 13 13 13 14 15 16 15 15 16 19 23 24 25 25 25 23 21 20 20 19 19 18 18 17
4 6 7 9 10 8 6 6 6 4 5 6 6 4 4 3 1 1 2 5 7 6 5 6 6 6 8 11 13 13 14 12 10 10 11 13 14 14 12 12 12 12 13 13 13 13 14 15 19 24 26 27 26 24 21 19 18 17 17 17 17 16 16
8 9 9 11 11 9 8 7 7 6 6 6 6 5 3 2 2 3 3 4 6 6 6 8 9 9 10 11 11 10 10 9 8 8 9 10 11 11 11 11 12 12 12 12 11 12 13 16 20 24 28 29 26 21 18 16 15 15 15 15 16 16 17
12 12 12 12 11 10 10 9 8 8 8 7 6 6 4 4 5 6 6 4 3 4 5 7 8 8 8 8 9 8 7 7 7 7 8 8 8 9 10 11 10 10 9 9 8 7 9 13 20 22 24 26 21 18 18 17 15 14 14 14 16 16 15
12 13 14 15 14 13 13 13 11 11 10 9 7 7 6 6 7 8 7 6 4 3 4 5 6 7 7 8 8 8 7 7 6 6 6 6 5 5 6 6 5 5 3 3 4 4 7 7 15 18 18 20 18 16 15 14 12 11 9 8 11 11 10
13 15 18 19 18 18 17 18 17 16 14 12 9 7 6 5 6 7 7 7 5 4 4 4 4 5 7 8 8 8 7 6 6 5 5 5 4 4 4 4 3 3 1 1 1 2 5 3 9 11 10 11 11 9 8 7 7 7 6 7 9 9 9
16 19 20 19 19 19 19 20 20 19 18 16 14 11 8 7 8 7 6 6 5 4 3 2 2 4 7 8 7 7 7 7 7 6 6 6 6 6 7 7 5 5 4 3 4 5 4 5 6 6 5 5 5 5 5 6 6 6 6 8 8 9 9
18 19 18 17 16 17 17 18 19 19 19 18 16 15 14 13 12 10 8 7 6 3 2 1 2 4 6 6 5 6 7 8 8 8 8 8 8 9 9 9 7 6 5 5 5 5 5 4 3 3 2 3 3 4 4 4 5 5 6 6 6 6 5
18 18 17 16 16 16 17 18 19 20 20 18 16 17 17 17 16 15 13 12 9 6 5 5 6 8 8 7 7 8 9 9 10 10 10 10 10 10 10 10 9 7 7 8 8 8 7 5 4 3 3 3 3 4 5 5 5 5 5 5 5 4 3
17 17 17 16 16 15 16 17 19 20 21 20 19 18 18 18 18 17 16 15 14 13 13 13 14 16 16 15 16 15 15 15 15 15 16 15 14 13 13 13 12 11 11 12 12 11 10 9 7 7 7 7 6 6 6 6 6 6 5 5 5 5 5
13 14 14 14 14 15 15 16 16 18 19 19 19 20 20 19 19 17 16 16 15 16 17 18 19 21 22 22 22 21 20 20 20 20 20 19 18 17 16 15 15 15 14 14 14 13 12 11 10 9 9 8 8 7 7 6 6 5 5 5 5 4 4
Wind_Direction
197 191 189 189 189 189 192 193 192 190 188 189 194 196 198 200 202 203 206 208 207 203 198 197 196 197 197 196 198 199 194 191 195 198 200 203 204 205 208 210 209 204 205 207 204 202 201 199 200 203 205 208 209 207 209 213 216 219 224 229 232 227 220
193 191 191 190 190 191 193 194 192 191 188 188 192 196 199 202 203 204 207 209 209 206 201 199 197 197 197 196 198 200 195 193 197 200 202 205 206 208 210 211 211 209 207 207 205 204 202 201 202 204 207 212 214 211 212 215 216 219 223 225 225 219 217
193 189 191 192 192 192 193 193 193 193 191 188 189 196 199 202 205 207 209 210 208 207 204 201 199 198 198 197 198 200 199 198 201 202 203 205 207 208 211 213 214 213 210 208 208 206 203 204 206 206 208 215 219 218 216 216 219 224 226 225 224 219 219
196 190 191 193 193 193 194 194 195 195 194 190 189 195 200 203 207 209 211 213 210 207 205 203 201 200 200 199 199 202 202 201 204 205 204 204 205 208 209 211 211 211 210 209 207 206 204 206 210 210 209 215 220 220 220 222 224 227 225 226 227 225 225
195 186 187 188 189 192 195 197 198 197 195 192 191 195 200 203 207 209 212 216 214 209 206 204 202 202 203 201 200 203 205 205 206 208 207 204 204 207 208 208 207 205 206 206 205 205 205 207 213 215 211 212 217 219 221 224 225 224 222 223 225 225 226
193 183 184 185 186 192 196 199 200 199 197 195 193 195 199 201 205 208 211 215 215 210 207 206 204 203 204 203 202 204 207 208 209 209 210 208 205 207 207 206 204 202 201 201 201 201 204 209 215 216 213 211 214 216 218 219 218 219 221 223 224 223 222
193 186 188 191 191 195 200 201 201 200 200 199 196 195 198 201 204 207 209 212 214 211 207 207 205 204 205 205 203 204 207 210 210 209 210 211 210 210 210 207 206 205 201 197 196 197 200 208 212 214 216 218 216 214 216 217 216 219 223 226 226 225 225
205 200 198 198 197 197 201 202 202 202 201 200 198 195 197 201 204 206 209 212 213 212 210 208 207 206 205 206 206 205 206 210 210 209 209 211 212 211 211 210 208 207 205 201 198 199 202 204 204 209 218 222 222 221 223 221 216 215 222 227 225 224 228
226 225 218 210 201 199 202 202 202 202 201 201 199 197 197 201 204 207 209 211 213 213 212 210 209 209 207 208 209 208 208 209 210 209 209 210 210 208 208 209 205 202 205 206 203 203 207 208 208 214 220 219 217 220 227 224 210 202 212 222 221 220 227
251 253 237 219 204 200 203 204 203 201 201 201 200 198 198 200 203 206 208 211 213 214 214 212 210 210 210 210 211 211 211 211 211 211 210 209 208 205 204 205 203 199 202 207 208 207 211 215 215 219 223 218 209 209 220 218 208 206 218 229 231 231 234
305 296 226 205 199 197 199 203 205 202 199 201 201 199 199 200 202 205 208 212 213 214 213 212 212 212 211 211 212 214 214 212 212 212 211 210 207 205 204 204 204 204 205 207 211 213 215 217 217 220 227 225 217 213 213 212 214 224 234 238 238 238 242
340 334 200 191 189 190 193 201 205 202 200 201 201 201 200 200 201 205 208 211 212 211 209 208 209 210 212 213 212 214 215 213 211 211 211 211 210 208 206 204 203 205 206 208 211 215 217 219 218 220 226 231 229 223 218 217 226 235 238 237 235 236 243
357 354 200 193 193 194 192 196 205 206 204 202 201 202 201 199 199 203 206 207 208 209 207 206 205 204 208 212 213 214 214 212 212 213 213 212 212 211 207 203 202 202 203 207 211 211 214 219 223 225 228 231 233 231 227 228 237 243 241 235 231 234 245
19 24 122 187 202 205 199 196 206 210 208 206 203 202 202 201 200 201 204 205 206 208 208 206 204 203 206 209 213 216 215 212 212 214 215 211 211 211 207 202 202 205 207 212 214 212 212 217 223 227 228 228 229 229 228 230 238 243 244 241 239 244 252
36 30 44 165 188 205 213 213 212 207 205 205 204 203 202 201 199 200 202 204 205 208 209 208 205 206 208 208 211 216 217 213 211 213 215 212 209 212 208 204 205 208 212 216 220 222 220 218 219 222 225 226 227 229 232 235 238 240 242 244 246 249 254
51 51 39 86 171 193 215 225 217 208 202 198 199 201 201 200 198 197 200 204 207 207 209 211 209 208 209 208 209 215 217 214 210 211 215 214 209 209 209 207 210 215 218 219 221 226 226 222 220 219 221 224 227 232 238 241 241 240 240 241 241 243 247
50 57 66 75 157 203 214 209 198 206 206 198 193 195 195 195 197 199 201 203 205 207 210 213 211 209 211 209 207 211 215 213 208 207 212 214 211 211 211 209 212 219 222 222 223 228 228 225 222 222 223 227 232 239 244 246 245 242 240 238 234 233 239
58 54 61 76 150 200 209 209 204 208 208 205 206 204 196 191 192 197 201 202 204 207 210 213 211 210 212 209 206 209 212 212 209 206 208 212 212 212 214 212 214 219 222 222 225 228 227 224 224 225 228 232 238 244 248 250 251 248 244 240 236 234 237
71 69 67 68 114 157 173 198 203 207 207 204 207 211 211 205 196 194 197 199 204 210 212 212 210 210 211 209 207 210 212 213 212 209 208 210 211 212 215 215 216 221 224 224 224 224 222 222 224 227 231 235 242 248 251 253 253 251 248 244 241 239 238
77 77 75 70 81 120 126 140 158 173 187 196 201 204 207 212 213 210 202 199 203 209 213 213 210 209 211 210 209 212 214 214 215 213 211 212 211 211 213 215 217 221 225 229 229 226 222 222 225 229 232 236 243 249 254 255 254 252 248 243 241 240 240
85 78 76 71 61 79 109 126 140 155 169 180 189 196 201 208 212 214 213 207 203 204 208 211 210 210 212 212 213 215 216 215 216 215 214 215 215 215 215 216 217 219 224 230 233 234 234 232 233 235 237 241 246 250 254 256 257 256 250 243 240 240 241
82 67 62 60 52 56 86 115 143 154 159 165 175 189 200 206 209 211 214 215 214 213 212 212 211 211 212 214 216 218 218 218 218 218 218 219 219 218 217 217 218 221 225 230 234 237 239 240 242 244 246 248 250 252 253 254 255 255 250 244 241 241 243
68 52 42 47 50 52 73 102 140 147 153 166 173 180 191 203 211 214 216 220 222 222 221 220 218 213 213 214 217 219 220 217 215 216 217 217 216 217 217 217 219 224 228 232 235 237 240 242 244 247 249 250 251 252 252 252 251 250 248 246 244 242 244
71 66 55 50 50 56 79 99 131 141 146 160 169 177 189 203 213 219 222 227 229 227 227 229 229 226 223 220 220 221 219 215 212 213 215 215 217 223 225 222 222 227 230 233 235 237 238 241 244 246 249 249 250 250 249 248 247 246 246 245 243 243 244
85 85 78 53 28 30 83 99 101 125 142 149 157 169 183 196 212 220 224 232 242 245 242 240 238 235 234 230 227 224 221 218 220 222 220 218 219 225 227 223 222 226 229 232 236 238 239 242 244 247 248 247 247 246 245 245 245 246 245 243 242 244 246
79 76 68 43 14 8 65 104 101 111 132 146 148 147 162 182 187 197 215 232 247 253 255 253 246 240 236 233 231 227 220 215 217 217 214 211 213 219 222 222 225 229 231 234 237 238 240 242 242 243 244 245 245 245 244 243 243 243 243 243 244 248 250
65 58 52 49 37 18 41 115 117 120 134 149 143 117 117 139 149 166 239 266 226 252 315 281 242 237 236 233 226 212 202 206 210 207 203 204 211 219 224 225 231 238 240 242 243 243 244 244 243 243 243 243 243 242 239 239 240 239 240 242 244 245 247
51 60 69 67 64 61 72 109 119 120 135 145 140 113 105 102 120 170 357 61 99 91 51 71 180 210 217 215 205 185 183 196 200 190 192 202 208 216 222 224 230 239 244 248 250 250 251 250 248 247 244 240 239 238 234 231 233 236 237 239 240 241 242
72 77 80 74 71 71 81 102 112 106 114 129 130 115 98 89 98 134 90 80 93 100 94 103 118 128 147 167 172 167 173 185 184 179 188 196 201 208 216 222 229 235 241 248 253 258 261 259 254 250 246 239 233 229 230 231 232 236 239 240 243 246 248
93 88 81 72 72 74 79 92 103 101 103 116 128 131 135 162 155 137 123 102 102 114 118 118 122 127 134 140 144 150 162 170 172 178 188 193 199 207 215 223 231 235 240 246 252 260 263 256 249 243 234 229 225 223 228 234 233 234 241 247 251 254 253
98 90 83 77 75 77 82 89 96 102 106 112 124 136 146 160 154 144 134 124 126 143 138 130 131 132 130 130 130 133 141 149 154 164 176 187 197 201 202 210 218 225 237 243 243 266 282 258 244 235 220 214 218 223 224 225 226 232 243 254 256 253 252
106 95 89 86 86 86 89 92 94 100 107 111 120 131 134 136 133 126 121 123 141 152 133 124 128 126 125 127 123 117 119 126 134 146 161 170 176 181 184 191 200 208 239 256 241 307 336 268 228 220 206 202 211 218 215 214 220 227 239 254 252 245 240
114 105 98 95 94 92 92 92 91 92 95 98 105 114 119 124 118 109 108 114 121 121 112 111 121 124 121 119 115 114 116 120 124 129 134 132 126 127 135 136 148 161 123 50 124 63 31 93 171 180 180 184 194 202 196 194 204 215 227 243 244 238 232
119 110 104 99 96 94 91 88 85 85 86 88 91 93 94 100 104 107 111 108 98 96 98 86 83 100 105 104 107 112 115 116 118 115 104 98 96 102 118 125 128 138 141 114 112 120 101 96 118 135 144 155 171 184 188 193 203 216 227 232 232 231 231
121 113 108 104 101 96 91 86 83 83 84 86 88 90 89 88 90 96 105 107 102 101 108 93 88 98 100 99 100 104 105 104 103 100 97 99 100 103 116 130 133 128 127 118 108 116 124 118 120 143 161 178 195 195 190 196 200 203 211 218 218 222 228
124 120 115 112 109 100 90 86 86 85 85 85 88 89 86 83 83 84 86 89 92 97 105 111 109 103 99 97 97 99 103 104 103 102 103 102 102 106 117 127 129 116 101 100 100 101 107 113 124 140 141 152 177 177 169 172 179 184 193 198 195 187 178
127 124 119 118 114 105 95 92 90 88 86 84 84 86 86 85 83 82 81 83 85 88 94 99 100 99 98 97 97 98 101 104 103 101 99 96 95 100 108 113 114 107 98 94 94 94 98 103 108 115 118 120 127 136 143 147 153 158 159 153 146 138 132
138 133 130 128 121 109 101 97 93 90 88 86 84 84 86 86 84 83 84 87 90 92 95 98 100 99 97 95 94 94 96 98 98 95 94 94 92 91 94 98 102 103 100 96 94 95 97 99 101 106 108 109 112 116 121 126 129 132 130 126 127 132 130